Regional Weather Roundup
Issued by NWS

Home | Current Version | Previous Version | Graphics & Text | Print | Product List | Glossary On
Versions: 1 2 3 4 5 6 7 8 9 10 11 12 13 14 15 16 17 18 19 20 21 22 23 24 25 26 27 28 29 30 31 32 33 34 35 36 37 38 39 40 41 42 43 44 45 46 47 48 49 50
000
ASUS43 KTOP 040759
RWRKS

WEATHER ROUNDUP FOR KANSAS
NATIONAL WEATHER SERVICE GOODLAND KS
300 AM CDT MON MAY 04 2015

NOTE:  "FAIR" INDICATES FEW OR NO CLOUDS BELOW 12,000 FEET WITH NO
SIGNIFICANT WEATHER AND/OR OBSTRUCTIONS TO VISIBILITY.

KSZ001>006-013>018-027>032-041>047-040900-
NORTHWEST KANSAS

CITY           SKY/WX    TMP DP  RH WIND       PRES   REMARKS
GOODLAND       CLOUDY    56  45  66 NE14      30.02S
HAYS           CLOUDY    63  48  59 W9        29.93F
HILL CITY      LGT RAIN  64  49  57 VRB5G22   29.98R
RUSSELL        CLOUDY    66  51  58 SW10      29.89F
$$

KSZ061>065-074>080-084>089-040900-
SOUTHWEST KANSAS

CITY           SKY/WX    TMP DP  RH WIND       PRES   REMARKS
DODGE CITY     CLOUDY    62  53  72 S7        29.95R
ELKHART          N/A     57  50  78 SE13        N/A
GARDEN CITY    CLOUDY    59  54  83 S6        29.94S
GREAT BEND     CLOUDY    66  52  59 W23       29.89F
LIBERAL        CLOUDY    61  54  77 SE6       29.98F
$$

KSZ066>073-081>083-090>101-040900-
SOUTHEAST KANSAS

CITY           SKY/WX    TMP DP  RH WIND       PRES   REMARKS
CHANUTE        CLOUDY    63  56  78 S13       29.97F
COFFEYVILLE    CLOUDY    62  56  80 S7        29.98F
HUTCHINSON     CLOUDY    62  55  77 SE9       29.91F
MEDICINE LODGE   N/A     66  56  70 S5        29.93R
NEWTON         MOCLDY    64  50  59 S9        29.95S
PARSONS        CLOUDY    62  57  83 S5        29.99F
WICHITA INTL   CLOUDY    63  53  70 S10       29.94R
WICHITA JABRA  MOCLDY    64  52  64 S12       29.93F
WINFIELD       MOCLDY    62  54  74 S9        29.96F
$$

KSZ007>012-019>026-033>040-048>060-102>105-040900-
NORTHEAST KANSAS

CITY           SKY/WX    TMP DP  RH WIND       PRES   REMARKS
CONCORDIA      CLOUDY    68  55  63 SW12      29.85R
EMPORIA        CLOUDY    64  54  69 S15       29.91F
LAWRENCE       CLOUDY    69  54  58 S8        29.91F
MANHATTAN      CLOUDY    68  55  63 SW22      29.84F
OLATHE IND     CLOUDY    68  55  63 S15       29.94F
OLATHE EXE     CLOUDY    67  56  67 S12       29.94S
SALINA         CLOUDY    68  57  68 S15       29.85F
TOPEKA BILLARD PTCLDY    69  54  58 S10       29.90R
TOPEKA FORBES  PTCLDY    68  55  63 S17G24    29.88F
$$


USA.gov is the U.S. government's official web portal to all federal, state and local government web resources and services.